This is the latest recevied weather packets stored in our database for station/object K3HW. If no packets are shown the sender has not sent any weather packets the latest 10 day(s).
| Time | Temp. | Humidity | Pressure | Rain* | Wind** | Luminosity | Snow |
|---|---|---|---|---|---|---|---|
| 1777830538 | 13.89° C | 35% | 1016.6 hPa | 0 mm | - | 110 W/m² | - |
| 1777830236 | 13.33° C | 35% | 1016.8 hPa | 0 mm | - | 66 W/m² | - |
| 1777829931 | 13.33° C | 38% | 1016.8 hPa | 0 mm | - | 82 W/m² | - |
| 1777829628 | 13.33° C | 37% | 1016.9 hPa | 0 mm | - | 131 W/m² | - |
| 1777829324 | 13.33° C | 35% | 1016.8 hPa | 0 mm | - | 111 W/m² | - |
| 1777829022 | 13.33° C | 36% | 1016.8 hPa | 0 mm | - | 117 W/m² | - |
| 1777828718 | 13.33° C | 37% | 1017.2 hPa | 0 mm | - | 134 W/m² | - |
| 1777828415 | 12.78° C | 37% | 1016.8 hPa | 0 mm | - | 229 W/m² | - |
| 1777828112 | 12.22° C | 37% | 1016.9 hPa | 0 mm | - | 181 W/m² | - |
| 1777827808 | 12.78° C | 36% | 1017.1 hPa | 0 mm | - | 163 W/m² | - |
| 1777827505 | 12.78° C | 38% | 1017 hPa | 0 mm | - | 412 W/m² | - |
| 1777827204 | 12.22° C | 39% | 1017 hPa | 0 mm | - | 254 W/m² | - |
| 1777826899 | 12.22° C | 37% | 1017 hPa | 0 mm | - | 342 W/m² | - |
| 1777826597 | 12.22° C | 42% | 1017 hPa | 0 mm | - | 523 W/m² | - |
| 1777826293 | 11.67° C | 41% | 1017.2 hPa | 0 mm | - | 857 W/m² | - |
| 1777825991 | 12.22° C | 38% | 1017.2 hPa | 0 mm | - | 187 W/m² | - |
| 1777825687 | 11.11° C | 42% | 1017.5 hPa | 0 mm | - | 148 W/m² | - |
| 1777825385 | 11.11° C | 42% | 1017.5 hPa | 0 mm | - | 138 W/m² | - |
| 1777825082 | 11.67° C | 41% | 1017.4 hPa | 0 mm | - | 871 W/m² | - |
| 1777824778 | 12.22° C | 41% | 1017.3 hPa | 0 mm | - | 817 W/m² | - |
| 1777824475 | 12.22° C | 40% | 1017.4 hPa | 0 mm | - | 769 W/m² | - |
| 1777824171 | 11.67° C | 41% | 1017.7 hPa | 0 mm | - | 695 W/m² | - |
| 1777823867 | 11.11° C | 45% | 1017.6 hPa | 0 mm | - | 385 W/m² | - |
| 1777823565 | 11.11° C | 46% | 1017.5 hPa | 0 mm | - | 120 W/m² | - |
| 1777823262 | 12.22° C | 41% | 1017.3 hPa | 0 mm | - | 826 W/m² | - |
* Rain latest hour (hover to see other rain measurements)
** Current wind speed in m/s (hover to see current wind gust speed)